Location: *
(50.8160°S, 176.0219°W)
Time: 00:11:18
(UTC+00:00)

ISS - Pass Details

Date: 19 May 2026
Orbit: 413 x 422 km, 51.6° (Epoch: 9 June)

Event Time Altitude Azimuth Distance (km) Brightness Sun altitude
Exits shadow 17:26:00 32° 317° (NW) 776 -2.7 -17.5°
Maximum altitude 17:27:22 58° 22° (NNE) 515 -3.2 -17.3°
Drops below altitude 10° 17:30:48 10° 102° (ESE) 1,547 0.2 -16.8°
Sets 17:32:56 0° 105° (ESE) 2,416 1.3 -16.5°
